Location: Oshawa
(43.9000°N, 78.8670°W)
Time: 17:09:21

Transit 2A Rocket - Visible Passes

Search period start: 24 November 2015 00:00
Search period end: 04 December 2015 00:00
Orbit: 595 x 910 km, 66.7° (Epoch: 23 November)

Date Brightness Start Highest point End Pass type
(mag) Time Alt. Az. Time Alt. Az. Time Alt. Az.
24 Nov 7.1 18:43:01 10° WNW 18:45:16 13° NW 18:47:24 10° N visible
25 Nov 6.7 17:59:18 10° W 18:02:43 21° NW 18:05:59 10° N visible
26 Nov 6.0 17:16:10 10° WSW 17:20:16 33° NW 17:24:12 10° NNE visible
28 Nov 7.0 17:36:12 10° WNW 17:38:52 15° NW 17:41:23 10° N visible
01 Dec 7.1 17:13:37 10° NW 17:15:04 11° NW 17:16:22 10° NNW visible
